KC5TIL-3 Weather Reports


Display with metric or nautical units.
time (UTC)temp
F
wind
direction
speed
MPH
gust
MPH
rain 1hr
in
rain 24hr
in
rain mn
in
humidity
%
barometer
mb
20260904234505 97 175 4.0 11.0 0.00 0.00 0.00 16 1008.8
20260904234004 97 131 7.0 10.0 0.00 0.00 0.00 16 1008.8
20260904233506 97 129 5.0 10.0 0.00 0.00 0.00 16 1008.8
20260904233008 97 138 6.0 14.0 0.00 0.00 0.00 16 1007.8
20260904232506 97 136 4.0 11.0 0.00 0.00 0.00 16 1007.8
20260904232008 97 156 9.0 9.0 0.00 0.00 0.00 16 1007.8
20260904231510 98 211 5.0 8.0 0.00 0.00 0.00 15 1008.8
20260904231008 97 118 5.0 12.0 0.00 0.00 0.00 16 1008.8
20260904230510 97 118 9.0 12.0 0.00 0.00 0.00 16 1008.8
20260904230012 97 118 9.0 12.0 0.00 0.00 0.00 16 1008.8
20260904225506 96 117 6.0 12.0 0.00 0.00 0.00 16 1008.8
20260904225008 96 153 7.0 10.0 0.00 0.00 0.00 16 1008.8
20260904224510 97 136 7.0 10.0 0.00 0.00 0.00 16 1008.8
20260904224004 97 128 7.0 11.0 0.00 0.00 0.00 16 1008.8
20260904223506 97 200 7.0 10.0 0.00 0.00 0.00 13 1008.8
20260904223008 97 132 6.0 9.0 0.00 0.00 0.00 13 1008.8
20260904222506 97 133 4.0 12.0 0.00 0.00 0.00 13 1008.8
20260904222004 97 158 9.0 12.0 0.00 0.00 0.00 13 1008.8
20260904221506 97 114 6.0 9.0 0.00 0.00 0.00 13 1008.8
20260904221004 97 212 4.0 9.0 0.00 0.00 0.00 13 1008.8
20260904220506 98 113 7.0 12.0 0.00 0.00 0.00 13 1008.8
20260904220008 97 124 8.0 9.0 0.00 0.00 0.00 16 1008.8
20260904215507 98 189 4.0 10.0 0.00 0.00 0.00 15 1008.8
20260904215008 98 194 5.0 9.0 0.00 0.00 0.00 15 1008.8
20260904214510 98 237 5.0 11.0 0.00 0.00 0.00 15 1008.8
20260904214009 98 132 6.0 10.0 0.00 0.00 0.00 15 1008.8
20260904213511 98 133 6.0 12.0 0.00 0.00 0.00 15 1008.8
20260904213013 97 149 6.0 11.0 0.00 0.00 0.00 16 1008.8
20260904212511 98 125 5.0 10.0 0.00 0.00 0.00 15 1008.8
20260904212013 97 228 6.0 10.0 0.00 0.00 0.00 15 1008.8
20260904211515 97 130 7.0 10.0 0.00 0.00 0.00 16 1008.8
20260904211013 97 136 6.0 13.0 0.00 0.00 0.00 16 1008.8
20260904210515 97 168 10.0 11.0 0.00 0.00 0.00 16 1008.8
20260904210006 96 218 7.0 8.0 0.00 0.00 0.00 16 1009.8
20260904205505 96 151 3.0 13.0 0.00 0.00 0.00 16 1009.8
20260904205007 97 134 10.0 11.0 0.00 0.00 0.00 16 1009.8
20260904204508 97 126 7.0 12.0 0.00 0.00 0.00 16 1009.8
20260904204006 96 127 8.0 9.0 0.00 0.00 0.00 16 1009.8
20260904203508 96 165 6.0 11.0 0.00 0.00 0.00 16 1009.8
20260904203010 97 171 5.0 10.0 0.00 0.00 0.00 16 1009.8
20260904202508 97 192 4.0 10.0 0.00 0.00 0.00 16 1009.8
20260904202010 96 117 7.0 13.0 0.00 0.00 0.00 16 1009.8
20260904201512 96 64 0.0 13.0 0.00 0.00 0.00 16 1009.8
20260904201010 96 133 9.0 10.0 0.00 0.00 0.00 16 1009.8
20260904200512 95 160 4.0 11.0 0.00 0.00 0.00 17 1009.8
20260904200014 96 203 4.0 12.0 0.00 0.00 0.00 17 1009.8
20260904195512 95 124 9.0 9.0 0.00 0.00 0.00 17 1009.8
20260904195014 97 215 6.0 10.0 0.00 0.00 0.00 16 1009.8
20260904194516 96 174 0.0 9.0 0.00 0.00 0.00 16 1010.8
20260904194014 95 179 4.0 10.0 0.00 0.00 0.00 17 1010.8
20260904193516 95 119 4.0 12.0 0.00 0.00 0.00 17 1010.8
20260904193018 94 124 9.0 12.0 0.00 0.00 0.00 17 1010.8
20260904192517 94 144 7.0 12.0 0.00 0.00 0.00 17 1010.8
20260904192018 94 213 9.0 11.0 0.00 0.00 0.00 17 1010.8
20260904191520 94 191 6.0 13.0 0.00 0.00 0.00 17 1010.8
20260904191019 93 146 7.0 13.0 0.00 0.00 0.00 17 1010.8
20260904190516 94 194 5.0 9.0 0.00 0.00 0.00 16 1010.8
20260904190018 94 210 4.0 10.0 0.00 0.00 0.00 17 1010.8
20260904185516 94 193 7.0 9.0 0.00 0.00 0.00 17 1010.8
20260904185018 94 202 4.0 9.0 0.00 0.00 0.00 17 1010.8
20260904184520 93 184 4.0 11.0 0.00 0.00 0.00 18 1010.8
20260904184014 93 125 7.0 11.0 0.00 0.00 0.00 18 1010.8
20260904183516 92 216 8.0 10.0 0.00 0.00 0.00 18 1010.8
20260904183017 92 158 5.0 10.0 0.00 0.00 0.00 19 1011.8
20260904182516 93 135 3.0 8.0 0.00 0.00 0.00 18 1011.8
20260904182018 93 121 5.0 11.0 0.00 0.00 0.00 19 1011.8
20260904181520 92 200 4.0 11.0 0.00 0.00 0.00 19 1011.8
20260904181018 93 137 4.0 10.0 0.00 0.00 0.00 19 1011.8
20260904180520 92 104 6.0 15.0 0.00 0.00 0.00 21 1011.8
20260904180022 91 182 7.0 11.0 0.00 0.00 0.00 21 1011.8
20260904175520 93 261 6.0 7.0 0.00 0.00 0.00 20 1011.8
20260904175022 92 167 4.0 12.0 0.00 0.00 0.00 20 1011.8
20260904174524 91 198 4.0 12.0 0.00 0.00 0.00 21 1011.8
20260904174023 90 220 6.0 12.0 0.00 0.00 0.00 21 1011.8
20260904173520 91 213 7.0 8.0 0.00 0.00 0.00 20 1011.8
20260904173021 92 307 4.0 9.0 0.00 0.00 0.00 21 1011.8
20260904172520 91 176 5.0 11.0 0.00 0.00 0.00 22 1011.8
20260904172022 90 185 4.0 10.0 0.00 0.00 0.00 24 1011.8
20260904171519 90 153 3.0 13.0 0.00 0.00 0.00 27 1011.8
20260904171016 89 211 7.0 9.0 0.00 0.00 0.00 26 1011.8
20260904170518 90 218 4.0 7.0 0.00 0.00 0.00 25 1011.8
20260904170016 90 73 0.0 9.0 0.00 0.00 0.00 25 1011.8
20260904165514 89 125 7.0 8.0 0.00 0.00 0.00 25 1011.8
20260904165016 88 178 4.0 10.0 0.00 0.00 0.00 24 1011.8
20260904164518 89 240 4.0 12.0 0.00 0.00 0.00 25 1012.8
20260904164017 87 218 5.0 11.0 0.00 0.00 0.00 26 1012.8
20260904163518 87 194 8.0 11.0 0.00 0.00 0.00 25 1012.8
20260904163020 87 212 6.0 9.0 0.00 0.00 0.00 28 1012.8
20260904162514 88 216 4.0 12.0 0.00 0.00 0.00 30 1012.8
20260904162016 87 208 7.0 10.0 0.00 0.00 0.00 31 1012.8
20260904161509 86 166 6.0 13.0 0.00 0.00 0.00 37 1012.8
20260904161007 86 132 9.0 11.0 0.00 0.00 0.00 35 1012.8
20260904160509 86 173 7.0 13.0 0.00 0.00 0.00 35 1012.8
20260904155510 85 211 7.0 10.0 0.00 0.00 0.00 38 1012.8
20260904155007 85 206 5.0 12.0 0.00 0.00 0.00 42 1012.8
20260904154509 84 233 8.0 12.0 0.00 0.00 0.00 43 1012.8
20260904154007 84 197 6.0 10.0 0.00 0.00 0.00 41 1012.8
20260904153509 84 192 6.0 8.0 0.00 0.00 0.00 40 1012.8
20260904153011 84 147 4.0 9.0 0.00 0.00 0.00 46 1011.8
20260904152510 83 174 3.0 12.0 0.00 0.00 0.00 53 1011.8
20260904152012 82 218 11.0 10.0 0.00 0.00 0.00 54 1011.8
20260904151513 82 217 4.0 12.0 0.00 0.00 0.00 57 1011.8
20260904151012 82 220 7.0 10.0 0.00 0.00 0.00 58 1011.8
20260904150514 82 209 4.0 9.0 0.00 0.00 0.00 58 1011.8
20260904150016 82 221 6.0 9.0 0.00 0.00 0.00 61 1011.8
20260904145514 82 196 4.0 6.0 0.00 0.00 0.00 63 1011.8
20260904145016 82 178 3.0 7.0 0.00 0.00 0.00 65 1011.8
20260904144518 81 185 5.0 7.0 0.00 0.00 0.00 65 1011.8
20260904144017 82 117 5.0 10.0 0.00 0.00 0.00 68 1011.8
20260904143514 81 174 4.0 8.0 0.00 0.00 0.00 68 1011.8
20260904143011 81 129 5.0 8.0 0.00 0.00 0.00 67 1011.8
20260904142510 81 139 0.0 8.0 0.00 0.00 0.00 69 1011.8
20260904142011 81 124 6.0 10.0 0.00 0.00 0.00 70 1011.8
20260904141513 81 163 6.0 7.0 0.00 0.00 0.00 71 1011.8
20260904141012 81 129 5.0 8.0 0.00 0.00 0.00 71 1011.8
20260904140514 81 140 6.0 8.0 0.00 0.00 0.00 71 1011.8
20260904140016 81 143 4.0 6.0 0.00 0.00 0.00 73 1011.8
20260904135514 81 175 4.0 5.0 0.00 0.00 0.00 74 1011.8
20260904135016 81 135 0.0 7.0 0.00 0.00 0.00 75 1011.8
20260904134518 80 127 4.0 7.0 0.00 0.00 0.00 75 1011.8
20260904134017 80 173 4.0 7.0 0.00 0.00 0.00 75 1011.8
20260904133514 80 141 4.0 7.0 0.00 0.00 0.00 75 1011.8
20260904133016 80 135 5.0 6.0 0.00 0.00 0.00 76 1011.8
20260904132514 80 123 4.0 7.0 0.00 0.00 0.00 76 1011.8
20260904132016 80 124 5.0 7.0 0.00 0.00 0.00 76 1011.8
20260904131518 80 121 4.0 7.0 0.00 0.00 0.00 76 1011.8
20260904131017 80 159 4.0 8.0 0.00 0.00 0.00 76 1011.8
20260904130519 80 133 7.0 7.0 0.00 0.00 0.00 76 1011.8
20260904130020 80 118 6.0 7.0 0.00 0.00 0.00 76 1011.8
20260904125519 80 120 6.0 9.0 0.00 0.00 0.00 76 1011.8
20260904125021 80 120 6.0 9.0 0.00 0.00 0.00 76 1011.8
20260904124518 80 111 7.0 8.0 0.00 0.00 0.00 76 1010.8
20260904124012 80 113 7.0 8.0 0.00 0.00 0.00 77 1010.8
20260904123514 80 111 6.0 7.0 0.00 0.00 0.00 77 1010.8
20260904123016 80 136 5.0 6.0 0.00 0.00 0.00 77 1010.8
20260904122515 80 180 3.0 8.0 0.00 0.00 0.00 77 1010.8
20260904122017 80 179 5.0 7.0 0.00 0.00 0.00 76 1010.8
20260904121518 80 131 3.0 7.0 0.00 0.00 0.00 76 1010.8
20260904121017 80 130 5.0 7.0 0.00 0.00 0.00 76 1010.8
20260904120519 80 141 4.0 6.0 0.00 0.00 0.00 76 1010.8
20260904120021 80 137 3.0 5.0 0.00 0.00 0.00 76 1010.8
20260904115519 80 161 3.0 6.0 0.00 0.00 0.00 76 1010.8
20260904115428 80 147 3.0 8.0 0.00 0.00 0.00 77 1010.8
20260904115021 80 147 3.0 8.0 0.00 0.00 0.00 77 1010.8
20260904114523 80 137 4.0 7.0 0.00 0.00 0.00 77 1010.8
20260904114022 80 138 3.0 7.0 0.00 0.00 0.00 77 1010.8
20260904113524 80 143 0.0 5.0 0.00 0.00 0.00 77 1010.8
20260904113025 80 133 4.0 7.0 0.00 0.00 0.00 77 1010.8
20260904112524 80 144 3.0 7.0 0.00 0.00 0.00 77 1010.8
20260904112026 80 137 3.0 6.0 0.00 0.00 0.00 77 1010.8
20260904111523 80 210 0.0 5.0 0.00 0.00 0.00 77 1010.8
20260904111022 80 168 0.0 4.0 0.00 0.00 0.00 77 1010.8
20260904110524 80 155 3.0 6.0 0.00 0.00 0.00 77 1010.8
20260904110234 80 199 4.0 5.0 0.00 0.00 0.00 77 1010.8
20260904110026 80 199 4.0 5.0 0.00 0.00 0.00 77 1010.8
20260904105524 80 161 3.0 5.0 0.00 0.00 0.00 77 1010.8
20260904105026 80 181 0.0 5.0 0.00 0.00 0.00 77 1010.8
20260904104528 80 174 3.0 5.0 0.00 0.00 0.00 77 1010.8
20260904104027 80 176 0.0 6.0 0.00 0.00 0.00 76 1010.8
20260904103529 80 163 4.0 6.0 0.00 0.00 0.00 77 1010.8
20260904103030 80 137 0.0 6.0 0.00 0.00 0.00 77 1010.8
20260904102529 80 132 3.0 6.0 0.00 0.00 0.00 77 1010.8
20260904102031 80 194 3.0 7.0 0.00 0.00 0.00 77 1010.8
20260904101533 80 146 4.0 7.0 0.00 0.00 0.00 77 1010.8
20260904101031 80 135 4.0 7.0 0.00 0.00 0.00 77 1010.8
20260904100533 80 191 4.0 8.0 0.00 0.00 0.00 77 1010.8
20260904100035 80 149 4.0 8.0 0.00 0.00 0.00 77 1010.8
20260904095534 80 129 5.0 8.0 0.00 0.00 0.00 76 1010.8
20260904095036 80 128 5.0 7.0 0.00 0.00 0.00 76 1010.8
20260904094537 80 113 4.0 7.0 0.00 0.00 0.00 76 1009.8
20260904094036 80 135 4.0 6.0 0.00 0.00 0.00 76 1009.8
20260904093538 80 148 4.0 8.0 0.00 0.00 0.00 76 1009.8
20260904093035 80 155 6.0 10.0 0.00 0.00 0.00 76 1010.8
20260904092534 80 129 5.0 7.0 0.00 0.00 0.00 77 1010.8
20260904092036 80 151 5.0 8.0 0.00 0.00 0.00 77 1010.8
20260904091538 80 136 6.0 7.0 0.00 0.00 0.00 77 1009.8
20260904091031 80 144 5.0 10.0 0.00 0.00 0.00 77 1009.8
20260904090533 80 128 6.0 9.0 0.00 0.00 0.00 77 1009.8
20260904090035 80 131 6.0 11.0 0.00 0.00 0.00 77 1010.8
20260904085534 80 131 4.0 8.0 0.00 0.00 0.00 77 1010.8
20260904085035 80 135 4.0 8.0 0.00 0.00 0.00 77 1010.8
20260904084537 80 203 5.0 8.0 0.00 0.00 0.00 77 1009.8
20260904084036 80 197 4.0 8.0 0.00 0.00 0.00 77 1009.8
20260904083538 80 223 4.0 8.0 0.00 0.00 0.00 76 1009.8
20260904083040 80 135 4.0 10.0 0.00 0.00 0.00 76 1009.8
20260904082538 80 100 4.0 9.0 0.00 0.00 0.00 76 1009.8
20260904082040 80 149 4.0 6.0 0.00 0.00 0.00 76 1009.8
20260904081542 80 155 3.0 7.0 0.00 0.00 0.00 76 1009.8
20260904081041 79 222 4.0 9.0 0.00 0.00 0.00 76 1009.8
20260904080538 79 134 4.0 7.0 0.00 0.00 0.00 76 1009.8
20260904080040 79 149 4.0 8.0 0.00 0.00 0.00 76 1010.8
20260904075529 79 133 5.0 8.0 0.00 0.00 0.00 76 1010.8
20260904075031 79 128 4.0 6.0 0.00 0.00 0.00 77 1010.8
20260904074533 79 156 3.0 7.0 0.00 0.00 0.00 77 1010.8
20260904074031 79 192 0.0 7.0 0.00 0.00 0.00 76 1010.8
20260904073533 79 149 4.0 6.0 0.00 0.00 0.00 76 1010.8
20260904073035 79 182 5.0 10.0 0.00 0.00 0.00 76 1010.8
20260904072534 79 157 3.0 7.0 0.00 0.00 0.00 76 1010.8
20260904072036 79 121 3.0 8.0 0.00 0.00 0.00 76 1010.8
20260904071537 79 195 5.0 6.0 0.00 0.00 0.00 76 1010.8
20260904071036 79 184 3.0 7.0 0.00 0.00 0.00 76 1010.8
20260904070538 79 207 4.0 7.0 0.00 0.00 0.00 75 1010.8
20260904070040 79 125 4.0 7.0 0.00 0.00 0.00 75 1010.8
20260904065538 79 215 3.0 7.0 0.00 0.00 0.00 75 1010.8
20260904065036 79 168 3.0 6.0 0.00 0.00 0.00 74 1010.8
20260904064538 79 139 0.0 7.0 0.00 0.00 0.00 74 1010.8
20260904064036 79 139 3.0 6.0 0.00 0.00 0.00 73 1010.8
20260904063538 79 201 3.0 6.0 0.00 0.00 0.00 72 1010.8
20260904063040 79 191 4.0 8.0 0.00 0.00 0.00 71 1010.8
20260904062539 79 214 6.0 7.0 0.00 0.00 0.00 70 1010.8
20260904062040 79 160 7.0 10.0 0.00 0.00 0.00 69 1010.8
20260904061542 79 124 6.0 8.0 0.00 0.00 0.00 68 1010.8
20260904061036 79 202 6.0 12.0 0.00 0.00 0.00 68 1010.8
20260904060538 79 219 4.0 10.0 0.00 0.00 0.00 69 1010.8
20260904060040 79 234 6.0 10.0 0.00 0.00 0.00 69 1010.8
20260904055539 79 137 5.0 9.0 0.00 0.00 0.00 67 1010.8
20260904055041 79 140 4.0 9.0 0.00 0.00 0.00 66 1010.8
20260904054542 79 135 6.0 10.0 0.00 0.00 0.00 65 1010.8
20260904054041 79 135 7.0 11.0 0.00 0.00 0.00 65 1010.8
20260904053543 79 138 9.0 11.0 0.00 0.00 0.00 64 1010.8
20260904053045 79 125 9.0 15.0 0.00 0.00 0.00 64 1010.8
20260904052543 79 119 7.0 12.0 0.00 0.00 0.00 64 1010.8
20260904052045 79 126 9.0 13.0 0.00 0.00 0.00 65 1010.8
20260904051547 79 136 8.0 11.0 0.00 0.00 0.00 65 1010.8
20260904051041 79 206 6.0 12.0 0.00 0.00 0.00 64 1010.8
20260904050543 79 162 9.0 12.0 0.00 0.00 0.00 62 1010.8
20260904050045 79 133 7.0 10.0 0.00 0.00 0.00 63 1010.8
20260904045544 79 117 5.0 12.0 0.00 0.00 0.00 60 1010.8
20260904045040 79 140 10.0 12.0 0.00 0.00 0.00 55 1010.8
20260904044542 80 129 8.0 14.0 0.00 0.00 0.00 48 1010.8
20260904044041 81 133 8.0 12.0 0.00 0.00 0.00 46 1010.8
20260904043543 81 118 8.0 11.0 0.00 0.00 0.00 45 1010.8
20260904043045 81 104 7.0 13.0 0.00 0.00 0.00 45 1010.8
20260904042543 81 107 10.0 12.0 0.00 0.00 0.00 44 1010.8
20260904042045 81 129 10.0 17.0 0.00 0.00 0.00 44 1010.8
20260904041547 81 129 7.0 13.0 0.00 0.00 0.00 44 1010.8
20260904041046 81 136 9.0 14.0 0.00 0.00 0.00 44 1010.8
20260904040548 81 119 12.0 15.0 0.00 0.00 0.00 44 1010.8
20260904040049 81 117 9.0 12.0 0.00 0.00 0.00 42 1010.8
20260904035548 81 152 5.0 13.0 0.00 0.00 0.00 42 1010.8
20260904035050 81 122 11.0 17.0 0.00 0.00 0.00 42 1010.8
20260904034552 81 142 10.0 15.0 0.00 0.00 0.00 42 1010.8
20260904034050 81 114 7.0 12.0 0.00 0.00 0.00 41 1010.8
20260904033552 81 119 10.0 15.0 0.00 0.00 0.00 41 1010.8
20260904033054 82 132 10.0 12.0 0.00 0.00 0.00 41 1010.8
20260904032553 82 137 6.0 13.0 0.00 0.00 0.00 41 1010.8
20260904032055 82 121 8.0 11.0 0.00 0.00 0.00 41 1010.8
20260904031556 82 105 8.0 12.0 0.00 0.00 0.00 42 1009.8
20260904031055 82 133 9.0 13.0 0.00 0.00 0.00 41 1009.8
20260904030557 82 117 8.0 16.0 0.00 0.00 0.00 41 1009.8
20260904030049 82 124 10.0 12.0 0.00 0.00 0.00 41 1009.8
20260904025548 82 126 10.0 15.0 0.00 0.00 0.00 41 1009.8
20260904025050 82 119 9.0 15.0 0.00 0.00 0.00 41 1009.8
20260904024552 82 112 9.0 14.0 0.00 0.00 0.00 41 1009.8
20260904024050 83 115 11.0 13.0 0.00 0.00 0.00 41 1009.8
20260904023552 83 137 9.0 13.0 0.00 0.00 0.00 40 1009.8
20260904023054 83 132 9.0 12.0 0.00 0.00 0.00 40 1009.8
20260904022553 83 117 7.0 12.0 0.00 0.00 0.00 41 1009.8
20260904022049 83 116 8.0 14.0 0.00 0.00 0.00 41 1009.8
20260904021551 83 130 12.0 15.0 0.00 0.00 0.00 41 1009.8
20260904021050 83 129 10.0 15.0 0.00 0.00 0.00 41 1009.8
20260904020552 83 124 10.0 13.0 0.00 0.00 0.00 40 1009.8
20260904020054 84 139 10.0 13.0 0.00 0.00 0.00 38 1009.8
20260904015552 84 114 7.0 12.0 0.00 0.00 0.00 36 1009.8
20260904015054 84 108 8.0 11.0 0.00 0.00 0.00 35 1009.8
20260904014556 84 137 8.0 12.0 0.00 0.00 0.00 34 1008.8
20260904014050 84 132 6.0 16.0 0.00 0.00 0.00 32 1008.8
20260904013053 85 138 7.0 15.0 0.00 0.00 0.00 30 1008.8
20260904012542 85 148 10.0 13.0 0.00 0.00 0.00 29 1008.8
20260904012044 85 146 6.0 15.0 0.00 0.00 0.00 29 1008.8
20260904011546 85 162 10.0 17.0 0.00 0.00 0.00 29 1008.8
20260904011044 86 136 11.0 18.0 0.00 0.00 0.00 29 1008.8
20260904010546 86 120 9.0 13.0 0.00 0.00 0.00 28 1008.8
20260904010043 87 114 7.0 13.0 0.00 0.00 0.00 29 1008.8
20260904005542 87 104 10.0 15.0 0.00 0.00 0.00 29 1008.8
20260904005044 87 134 9.0 13.0 0.00 0.00 0.00 29 1008.8
20260904004541 87 121 7.0 12.0 0.00 0.00 0.00 30 1008.8
20260904004040 87 140 12.0 15.0 0.00 0.00 0.00 30 1008.8
20260904003542 87 147 9.0 15.0 0.00 0.00 0.00 29 1008.8
20260904003044 88 138 7.0 15.0 0.00 0.00 0.00 29 1008.8
20260904002542 88 136 9.0 16.0 0.00 0.00 0.00 29 1008.8
20260904002044 88 141 10.0 12.0 0.00 0.00 0.00 29 1008.8
20260904001546 88 128 9.0 14.0 0.00 0.00 0.00 29 1008.8
20260904001045 88 137 11.0 17.0 0.00 0.00 0.00 30 1008.8
20260904000546 88 135 12.0 16.0 0.00 0.00 0.00 30 1008.8
20260904000048 88 133 13.0 20.0 0.00 0.00 0.00 30 1008.8
20260903235543 88 133 14.0 18.0 0.00 0.00 0.00 30 1008.8
20260903235044 89 139 11.0 16.0 0.00 0.00 0.00 29 1008.8